Location: DaltonSkyGazer Observatory
(42.4858°N, 73.1565°W)
Time: 06:14:18
(UTC-04:00)

Helios 1B - Visible Passes

Search period start: 26 August 2016 00:00
Search period end: 05 September 2016 00:00
Orbit: 621 x 624 km, 98.1° (Epoch: 25 August)

Date Brightness Start Highest point End Pass type
(mag) Time Alt. Az. Time Alt. Az. Time Alt. Az.
27 Aug 7.3 00:09:30 15° N 00:09:30 15° N 00:10:23 10° N visible
28 Aug 7.4 00:27:53 15° N 00:27:53 15° N 00:28:38 10° N visible
29 Aug 7.6 00:46:15 13° NNW 00:46:15 13° NNW 00:46:46 10° NNW visible
30 Aug 7.7 01:04:37 11° NNW 01:04:37 11° NNW 01:04:46 10° NNW visible
30 Aug 7.6 23:45:46 11° NNE 23:45:46 11° NNE 23:46:00 10° NNE visible
01 Sep 7.6 00:04:08 12° N 00:04:08 12° N 00:04:29 10° N visible
02 Sep 7.7 00:22:31 12° N 00:22:31 12° N 00:22:47 10° N visible
03 Sep 7.8 00:40:53 10° N 00:40:53 10° N 00:40:58 10° N visible
